Regional Weather Roundup
Issued by NWS

Home | Current Version | Previous Version | Graphics & Text | Print | Product List | Glossary On
Versions: 1 2 3 4 5 6 7 8 9 10 11 12 13 14 15 16 17 18 19 20 21 22 23 24 25 26 27 28 29 30 31 32 33 34 35 36 37 38 39 40 41 42 43 44 45 46 47 48 49 50
000
ASUS43 KIND 221100
RWRIN

WEATHER ROUNDUP FOR INDIANA
NATIONAL WEATHER SERVICE INDIANAPOLIS IN
700 AM EDT THU JUN 22 2017

NOTE: "FAIR" INDICATES FEW OR NO CLOUDS BELOW 12,000 FEET WITH NO
SIGNIFICANT WEATHER AND/OR OBSTRUCTIONS TO VISIBILITY.

* - STATION DOES NOT REPORT WEATHER SUCH AS PRECIPITATION OR FOG.

+ - STATION NOT QUALITY CONTROLLED BY THE NATIONAL WEATHER SERVICE.
    USE DATA WITH CAUTION...ESPECIALLY DEWPOINT AND RELATIVE
    HUMIDITY OBSERVATIONS.

INZ001>003-010>013-019-020-221200-
NORTHWEST INDIANA

CITY           SKY/WX    TMP DP  RH WIND       PRES   REMARKS
GARY /AIRPORT/ MOCLDY    77  66  69 SW8       29.87R
KNOX *+        CLOUDY    72  59  64 SW9       29.89S
MICHIGAN CITY+ PTCLDY    73  64  73 SW7       29.89R
MONTICELLO +   CLOUDY    74  67  80 SW9G16    29.91S
RENSSELAER +   PTCLDY    73  66  78 S9G16     29.91S

$$

LMZ046-743>745-221200-
SOUTHERN LAKE MICHIGAN

STATION/POSITION TIME  TEMP    WIND        PRES    WAVE
                       AIR SEA DIR/SP/G            HT
                 (UTC) (F)     (DEG/KT/KT) (MB)    (FT)
BURNS HARBOR     1040   77     210/ 15/ 19 1011.9R
MICHIGAN CITY    1030   76     200/ 13/ 14   N/A
5NW MICH CITY    1050   74 68  220/ 10/ 14   N/A     2

$$

INZ004-005-014>016-021>024-221200-
NORTH CENTRAL INDIANA

CITY           SKY/WX    TMP DP  RH WIND       PRES   REMARKS
ELKHART        CLOUDY    73  66  78 SW3       29.90
GOSHEN         CLOUDY    73  66  78 SW9       29.90S
SOUTH BEND     CLOUDY    73  68  84 SW10      29.89S

$$

INZ006>009-017-018-025>027-221200-
NORTHEAST INDIANA

CITY           SKY/WX    TMP DP  RH WIND       PRES   REMARKS
FORT WAYNE     CLOUDY    74  68  81 SW9       29.93F
KENDALLVILLE + CLOUDY    71  66  84 SW5       29.92F

$$

INZ028-029-035-036-043>045-051>053-221200-
WEST CENTRAL INDIANA

CITY           SKY/WX    TMP DP  RH WIND       PRES   REMARKS
LAFAYETTE      MOCLDY    72  68  87 S7        29.92S
TERRE HAUTE    PTCLDY    72  67  84 S3        29.96R

$$

INZ030>032-037>040-046>048-054>057-064-065-221200-
CENTRAL INDIANA

CITY           SKY/WX    TMP DP  RH WIND       PRES   REMARKS
COLUMBUS       MOCLDY    70  66  88 S5        29.99
GREENWOOD *+   PTCLDY    71  66  85 S6        29.98S
INDIANAPOLIS   MOCLDY    71  67  87 S7        29.96R
-EAGLE CREEK   PTCLDY    72  66  81 CALM      29.96R
KOKOMO +       MOCLDY    74  68  81 SW12      29.95S
MT COMFORT *+  PTCLDY    70  66  88 S5        29.98S
SHELBYVILLE    PTCLDY    72  66  81 S8        29.97S

$$

INZ033-034-041-042-049-050-058-059-221200-
EAST CENTRAL INDIANA

CITY           SKY/WX    TMP DP  RH WIND       PRES   REMARKS
MUNCIE         PTCLDY    74  67  78 SW8       29.97R
RICHMOND +     PTCLDY    68  64  88 SW7       30.01S

$$

INZ060-061-067>069-081>083-085>088-221200-
SOUTHWEST INDIANA

CITY           SKY/WX    TMP DP  RH WIND       PRES   REMARKS
EVANSVILLE     CLOUDY    73  68  84 S3        29.97S
HUNTINGBURG *+ CLOUDY    72  69  90 S5        29.99S

$$

INZ062-063-066-070>080-084-089>092-221200-
SOUTH CENTRAL AND SOUTHEAST INDIANA

CITY           SKY/WX    TMP DP  RH WIND       PRES   REMARKS
BLOOMINGTON    MOCLDY    71  65  81 S7        29.98R
MADISON *+     MOCLDY    72  68  88 S5        30.03S

$$





USA.gov is the U.S. government's official web portal to all federal, state and local government web resources and services.